Regional Weather Roundup
Issued by NWS

Home | Current Version | Previous Version | Graphics & Text | Print | Product List | Glossary On
Versions: 1 2 3 4 5 6 7 8 9 10 11 12 13 14 15 16 17 18 19 20 21 22 23 24 25 26 27
000
ASUS45 KCYS 291810
RWRWY

WYOMING REGIONAL WEATHER ROUNDUP
NATIONAL WEATHER SERVICE CHEYENNE WY
1200 PM MDT SUN MAY 29 2016

NOTE:  "FAIR" INDICATES FEW OR NO CLOUDS BELOW 12,000 FEET
WITH NO SIGNIFICANT WEATHER AND/OR OBSTRUCTIONS TO VISIBILITY.

WYZ001-291900-
YELLOWSTONE NATIONAL PARK

CITY           SKY/WX    TMP DP  RH WIND       PRES   REMARKS
LK YELLOWSTONE   N/A     56  23  27 VRB7      30.23F
6HR MIN TEMP:  26; 6HR MAX TEMP:  56;

W YELLOWSTONE  NOT AVBL

$$
WYZ002>013-054>058-071-098>099-291900-
NORTHERN WYOMING

CITY           SKY/WX    TMP DP  RH WIND       PRES   REMARKS
JACKSON        MOSUNNY   61  36  39 S8        30.18F
CODY           FAIR      66  34  30 SE9       30.07F
GREYBULL       FAIR      70  40  33 S7        30.05F
6HR MIN TEMP:  50; 6HR MAX TEMP:  70;

WORLAND        FAIR      69  37  30 CALM      30.07F
6HR MIN TEMP:  45; 6HR MAX TEMP:  70;

SHERIDAN       FAIR      72  38  29 SE9G16    30.05F
6HR MIN TEMP:  42; 6HR MAX TEMP:  72;

BUFFALO        FAIR      67  41  38 CALM      30.10F
6HR MIN TEMP:  47; 6HR MAX TEMP:  68;

GILLETTE       FAIR      68  44  42 S6        30.08F
6HR MIN TEMP:  48; 6HR MAX TEMP:  69;

HULETT         MOCLDY    68  43  40 NW6       30.09F
NEWCASTLE      FAIR      70  39  32 S17G24    30.10S

$$
WYZ014>020-022>026-101>103-291900-
CENTRAL WYOMING

CITY           SKY/WX    TMP DP  RH WIND       PRES   REMARKS
BIG PINEY      FAIR      58  28  32 CALM      30.23F
6HR MIN TEMP:  30; 6HR MAX TEMP:  60;

PINEDALE       NOT AVBL
DUBOIS         MOCLDY    61  23  23 NW13G25   30.17F
LANDER         FAIR      66  35  31 NE6       30.12F
6HR MIN TEMP:  43; 6HR MAX TEMP:  67;

RIVERTON       FAIR      66  27  23 CALM      30.14F
6HR MIN TEMP:  44; 6HR MAX TEMP:  66;

CASPER         FAIR      68  35  29 W6        30.13F
6HR MIN TEMP:  37; 6HR MAX TEMP:  68;

DOUGLAS          N/A    N/A N/A N/A MISG      30.12F

$$
WYZ021-027>030-104>119-291900-
SOUTHERN WYOMING

CITY           SKY/WX    TMP DP  RH WIND       PRES   REMARKS
EVANSTON       FAIR      65  35  33 SW15      30.22F
6HR MIN TEMP:  43; 6HR MAX TEMP:  65;

KEMMERER         N/A     61  28  29 CALM      30.25S
FORT BRIDGER   CLEAR     63  34  34 NE3       30.26S
ROCK SPRINGS   FAIR      62  28  27 NW9       30.23F
6HR MIN TEMP:  41; 6HR MAX TEMP:  62;

DIXON          FAIR      66  38  35 NW7       30.24F
RAWLINS        FAIR      66  32  28 W17       30.22F
6HR MIN TEMP:  36; 6HR MAX TEMP:  66;

SARATOGA       FAIR      64  32  29 W18G25    30.23F
LARAMIE        FAIR      65  30  27 SW13G23   30.22F
6HR MIN TEMP:  37; 6HR MAX TEMP:  67;

CHEYENNE       FAIR      70  35  27 S12G18    30.18F
6HR MIN TEMP:  44; 6HR MAX TEMP:  70;

TORRINGTON     FAIR      72  43  35 VRB3      30.09F
6HR MIN TEMP:  43; 6HR MAX TEMP:  72;

PINE BLUFFS    FAIR      72  32  23 SE5       30.16F

$$




USA.gov is the U.S. government's official web portal to all federal, state and local government web resources and services.